Time,TemperatureF,DewpointF,PressureIn,WindDirection,WindDirectionDegrees,WindSpeedMPH,WindSpeedGustMPH,Humidity,HourlyPrecipIn,Conditions,Clouds,dailyrainin,SoftwareType,DateUTC
2014-09-30 00:13:00,57.2,50.0,29.91,SSW,211,0.0,0.0,78,0.00,,,0.00,weatherlink.com 1.10,2014-09-30 07:13:00,
2014-09-30 00:28:00,57.3,51.0,29.91,SSW,211,0.0,0.0,78,0.00,,,0.00,weatherlink.com 1.10,2014-09-30 07:28:00,
2014-09-30 00:43:00,58.0,51.0,29.92,SSW,211,0.0,0.0,77,0.00,,,0.00,weatherlink.com 1.10,2014-09-30 07:43:00,
2014-09-30 00:58:00,57.5,50.0,29.91,SSW,211,0.0,0.0,77,0.00,,,0.00,weatherlink.com 1.10,2014-09-30 07:58:00,
2014-09-30 01:13:00,57.0,50.0,29.91,SSW,211,0.0,0.0,78,0.00,,,0.00,weatherlink.com 1.10,2014-09-30 08:13:00,
2014-09-30 01:28:00,57.0,50.0,29.91,SSW,211,0.0,0.0,78,0.00,,,0.00,weatherlink.com 1.10,2014-09-30 08:28:00,
2014-09-30 01:43:00,57.4,51.0,29.91,SSW,211,0.0,0.0,78,0.00,,,0.00,weatherlink.com 1.10,2014-09-30 08:43:00,
2014-09-30 01:58:00,57.5,50.0,29.91,SSW,211,0.0,0.0,77,0.00,,,0.00,weatherlink.com 1.10,2014-09-30 08:58:00,
2014-09-30 02:13:00,57.5,50.0,29.91,SSW,211,0.0,0.0,77,0.00,,,0.00,weatherlink.com 1.10,2014-09-30 09:13:00,
2014-09-30 02:28:00,57.0,50.0,29.91,SSW,211,0.0,0.0,77,0.00,,,0.00,weatherlink.com 1.10,2014-09-30 09:28:00,
2014-09-30 02:43:00,56.9,50.0,29.90,SSW,211,0.0,0.0,78,0.00,,,0.00,weatherlink.com 1.10,2014-09-30 09:43:00,
2014-09-30 02:58:00,56.8,50.0,29.90,SSW,211,0.0,0.0,78,0.00,,,0.00,weatherlink.com 1.10,2014-09-30 09:58:00,
2014-09-30 03:13:00,56.8,50.0,29.90,SSW,211,0.0,0.0,78,0.00,,,0.00,weatherlink.com 1.10,2014-09-30 10:13:00,
2014-09-30 03:28:00,56.7,50.0,29.90,SSW,211,0.0,0.0,78,0.00,,,0.00,weatherlink.com 1.10,2014-09-30 10:28:00,
2014-09-30 03:43:00,56.8,50.0,29.90,SSW,211,0.0,0.0,78,0.00,,,0.00,weatherlink.com 1.10,2014-09-30 10:43:00,
2014-09-30 03:58:00,56.7,50.0,29.89,SSW,211,0.0,0.0,78,0.00,,,0.00,weatherlink.com 1.10,2014-09-30 10:58:00,
2014-09-30 04:13:00,56.4,50.0,29.89,SSW,211,0.0,0.0,78,0.00,,,0.00,weatherlink.com 1.10,2014-09-30 11:13:00,
2014-09-30 04:28:00,56.3,50.0,29.89,SSW,211,0.0,0.0,78,0.00,,,0.00,weatherlink.com 1.10,2014-09-30 11:28:00,
2014-09-30 04:43:00,56.1,50.0,29.89,SSW,211,0.0,0.0,79,0.00,,,0.00,weatherlink.com 1.10,2014-09-30 11:43:00,
2014-09-30 04:58:00,56.0,50.0,29.89,SSW,211,0.0,0.0,79,0.00,,,0.00,weatherlink.com 1.10,2014-09-30 11:58:00,
2014-09-30 05:13:00,56.3,50.0,29.89,SSW,211,0.0,0.0,78,0.00,,,0.00,weatherlink.com 1.10,2014-09-30 12:13:00,
2014-09-30 05:28:00,56.3,50.0,29.89,SSW,211,0.0,0.0,78,0.00,,,0.00,weatherlink.com 1.10,2014-09-30 12:28:00,
2014-09-30 05:43:00,56.1,49.0,29.89,SSW,211,0.0,0.0,78,0.00,,,0.00,weatherlink.com 1.10,2014-09-30 12:43:00,
2014-09-30 05:58:00,56.1,49.0,29.89,SSW,211,0.0,0.0,78,0.00,,,0.00,weatherlink.com 1.10,2014-09-30 12:58:00,
2014-09-30 06:13:00,56.1,49.0,29.89,SSW,211,0.0,0.0,78,0.00,,,0.00,weatherlink.com 1.10,2014-09-30 13:13:00,
2014-09-30 06:28:00,55.9,49.0,29.89,SSW,211,0.0,0.0,78,0.00,,,0.00,weatherlink.com 1.10,2014-09-30 13:28:00,
2014-09-30 06:43:00,55.8,49.0,29.89,SSW,211,0.0,0.0,78,0.00,,,0.00,weatherlink.com 1.10,2014-09-30 13:43:00,
2014-09-30 06:58:00,55.9,49.0,29.89,SSW,211,0.0,0.0,78,0.00,,,0.00,weatherlink.com 1.10,2014-09-30 13:58:00,
2014-09-30 07:13:00,55.9,50.0,29.90,SSW,211,0.0,0.0,79,0.00,,,0.00,weatherlink.com 1.10,2014-09-30 14:13:00,
2014-09-30 07:28:00,55.9,49.0,29.90,SSW,211,0.0,0.0,78,0.00,,,0.00,weatherlink.com 1.10,2014-09-30 14:28:00,
2014-09-30 07:43:00,56.0,50.0,29.90,SSW,211,0.0,0.0,79,0.00,,,0.00,weatherlink.com 1.10,2014-09-30 14:43:00,
2014-09-30 07:58:00,56.1,50.0,29.90,SSW,211,0.0,0.0,79,0.00,,,0.00,weatherlink.com 1.10,2014-09-30 14:58:00,
2014-09-30 08:13:00,56.7,50.0,29.91,SSW,211,0.0,0.0,79,0.00,,,0.00,weatherlink.com 1.10,2014-09-30 15:13:00,
2014-09-30 08:28:00,57.3,51.0,29.91,SSW,211,0.0,0.0,79,0.00,,,0.00,weatherlink.com 1.10,2014-09-30 15:28:00,
2014-09-30 08:43:00,58.2,51.0,29.91,SSW,211,0.0,0.0,77,0.00,,,0.00,weatherlink.com 1.10,2014-09-30 15:43:00,
2014-09-30 08:58:00,59.4,51.0,29.91,SSW,211,0.0,0.0,75,0.00,,,0.00,weatherlink.com 1.10,2014-09-30 15:58:00,
2014-09-30 09:14:00,60.5,51.0,29.91,SSW,211,0.0,0.0,71,0.00,,,0.00,weatherlink.com 1.10,2014-09-30 16:14:00,
2014-09-30 09:29:00,61.3,52.0,29.91,SSW,211,0.0,0.0,71,0.00,,,0.00,weatherlink.com 1.10,2014-09-30 16:29:00,
2014-09-30 09:44:00,62.3,52.0,29.91,West,263,0.0,0.0,68,0.00,,,0.00,weatherlink.com 1.10,2014-09-30 16:44:00,
2014-09-30 09:59:00,62.3,51.0,29.91,NNW,348,0.0,0.0,67,0.00,,,0.00,weatherlink.com 1.10,2014-09-30 16:59:00,
2014-09-30 10:14:00,62.4,52.0,29.90,NNW,344,0.0,1.0,68,0.00,,,0.00,weatherlink.com 1.10,2014-09-30 17:14:00,
2014-09-30 10:29:00,62.7,52.0,29.89,SW,221,0.0,3.0,67,0.00,,,0.00,weatherlink.com 1.10,2014-09-30 17:29:00,
2014-09-30 10:44:00,63.4,51.0,29.89,SW,218,0.0,1.0,65,0.00,,,0.00,weatherlink.com 1.10,2014-09-30 17:44:00,
2014-09-30 10:59:00,64.0,51.0,29.90,SW,231,0.0,1.0,64,0.00,,,0.00,weatherlink.com 1.10,2014-09-30 17:59:00,
2014-09-30 11:14:00,64.9,52.0,29.89,SW,222,0.0,1.0,63,0.00,,,0.00,weatherlink.com 1.10,2014-09-30 18:14:00,
2014-09-30 11:29:00,65.5,52.0,29.89,SW,223,0.0,0.0,63,0.00,,,0.00,weatherlink.com 1.10,2014-09-30 18:29:00,